STARLINK-32573, 61725

Orbit data source: Space-Track

STARLINK-32573, 61725 is a payload satellite owned by SpaceX/Seattle (US) in LEO that was launched on Wed, 30 Oct 2024 UTC via an FALCON 9 launch vehicle from the Air Force Eastern Test Range (AFETR). Payload-class satellites include a variety of spacecraft equipped with specific instruments for various scientific and technological missions. These include communications satellites like Starlink; space stations such as the ISS; scientific satellites like the Hubble; Earth observation satellites from companies like Planet Labs, Umbra, and HawkEye 360; GPS; miniature CubeSats for education and research; and military/defense satellites.

Loading next visibility...
Identifier
61725, 2024-196U
Orbit
LEO
Country
Flag of USUS
Related business
Manufacturer
SpaceX/Seattle
Mission
Operational Commercial Communications
Bus & Motor
STARLINK V2M, Unknown motor
Mass
730 kg wet, ~700 kg dry
Launch date (UTC)
2024-10-30 (10 months ago)
Launch vehicle
FALCON 9
Launch site
Air Force Eastern Test Range (AFETR)
Object type
Payload
Rocket body
Debris
Shape & HBR
Box + 2 Pan, 14.5 m
Radar Cross Section
36.964 m², Large (>1 m²)

Expand to show TLE details & history
Last TLE update: 8 hours ago

TLE from 8 hours ago
0 STARLINK-32573
1 61725U 24196U   25243.22554988  .00001585  00000-0  65643-4 0  9999
2 61725  53.1591 266.1695 0000974  79.6132 280.4979 15.30196269 47990
Epoch: 2025-08-31T05:24Z
TLE epoch observation values (Epoch: 2025-08-31T05:24:47.509Z)
Latitude
0.00001°
Longitude
-154.67699°
Altitude
476.004 km
Speed
7.629 km/s
True Right ascension
17h 44m 40s
True Declination
0° 00' 00"
Sunlit
Object was in daylight at epoch
Visualization orbit readout
Latitude
Unknown
Longitude
Unknown
Altitude
Unknown
Speed
Unknown
Apparent Right ascension
Unknown
Apparent Declination
Unknown
Sunlit
N/A
Visualization observer readout
Local Sidereal Time
05:31:00
Azimuth
Unknown
Elevation
Unknown
Doppler factor
Unknown
Orbital elements
Apogee altitude
476.15 km
Perigee altitude
474.815 km
Semi-major axis
6,853.62 km
Eccentricity
0.0001
Inclination
53.1591°
RAAN
266.1695°
Arg. of periapsis
79.6132°
True anomaly
280.48693°
Mean anomaly
280.4979°
Eccentric anomaly
280.49241°
Mean motion
3.82528 °/min
Orbital period
94.11 mins
BSTAR
0.000065643
Loading maneuver chart data...
Computing Atmospheric mass density...
Loading historical data...
Loading historical data...
Loading historical data...
Loading historical data...
Loading historical data...
Loading historical data...
Loading historical data...

Documentation

Showing up to 5 results
|